Wetbulb
50.45 50.09 49.75 49.66 49.80 49.95 50.37 50.61 50.77 51.14 51.61 50.96 50.37 50.29 50.43 50.53 50.37 54.62 54.55 55.55 55.14 46.64 48.39 52.05 52.70 48.95 48.65 47.09 39.14 44.91 41.64 41.44 35.98 33.20 30.95 31.64 30.19 31.67 32.31 37.04 32.53 29.11 26.10 28.37 29.13 22.67 22.08 43.22 42.09 33.85 38.14 43.19 43.28 41.59
49.84 49.38 49.18 49.29 49.61 49.95 49.99 49.93 50.02 50.50 50.84 50.98 50.09 50.13 50.49 50.53 50.50 51.59 54.39 55.85 56.91 52.64 50.23 53.71 52.77 52.71 51.70 51.27 48.62 46.65 42.55 46.13 44.02 37.70 34.20 35.60 31.29 34.70 31.09 27.54 40.44 31.61 34.89 31.22 32.31 30.84 39.71 43.55 42.14 44.25 44.52 43.36 41.69 42.92
48.55 48.92 48.80 49.28 49.68 50.02 49.48 49.39 49.56 49.75 50.38 50.65 50.31 50.14 50.49 50.81 50.84 51.74 55.06 55.10 56.37 48.41 48.77 49.48 49.16 53.42 55.69 54.21 55.24 45.67 45.67 50.08 48.03 48.11 40.16 39.56 31.97 36.04 29.09 32.32 32.36 39.44 43.40 33.69 36.09 41.04 42.29 42.74 45.33 45.96 45.13 43.64 43.78 43.78
47.01 47.23 47.92 48.40 49.30 50.55 49.13 48.53 48.82 49.32 49.76 50.25 50.17 49.97 49.60 50.84 50.83 51.57 54.94 55.36 53.19 47.05 36.05 45.88 53.27 51.46 54.60 55.10 54.91 54.56 52.04 52.31 50.51 44.50 37.70 36.23 32.09 42.04 32.95 35.85 33.34 38.54 41.55 38.81 35.74 41.17 42.53 43.92 44.40 44.40 44.32 45.19 44.84 45.98
46.49 46.58 46.78 47.21 47.81 48.56 48.78 48.85 48.26 48.55 49.02 48.10 48.30 48.78 49.04 50.27 50.52 52.51 56.17 55.43 55.43 50.69 38.19 40.44 51.02 52.77 54.35 54.04 53.27 53.65 51.62 49.91 45.16 38.52 35.14 34.11 34.48 36.98 33.01 34.34 32.65 42.85 39.27 34.19 32.41 42.01 41.55 41.81 43.75 45.87 44.74 44.75 45.58 43.82
46.31 46.33 46.37 46.55 46.84 47.55 48.04 48.22 48.33 47.72 47.09 47.59 48.64 49.10 49.33 48.84 49.51 54.45 50.32 54.62 52.94 55.41 43.68 36.53 48.74 48.48 50.61 51.65 51.34 50.94 51.09 49.74 47.86 39.65 34.76 41.53 47.16 39.15 33.78 31.93 41.29 45.16 46.01 45.46 41.14 45.31 44.68 44.34 44.49 45.00 43.63 42.15 41.04 40.04
45.73 45.89 46.05 46.14 46.42 46.93 47.34 47.72 47.99 47.66 46.47 47.47 48.74 49.32 49.53 49.53 52.47 49.48 48.02 50.34 49.54 53.04 40.91 37.05 37.91 46.08 47.71 49.80 48.50 48.83 50.19 48.05 46.59 40.56 36.01 35.86 39.56 43.04 32.71 33.94 41.79 44.87 45.26 45.21 45.96 44.68 41.73 43.03 42.32 44.37 42.33 41.11 41.71 40.02
45.49 45.40 45.59 45.76 46.07 46.17 46.66 47.18 47.83 48.28 47.79 47.48 48.11 49.38 49.75 49.35 48.96 50.19 52.02 50.10 49.92 50.27 44.86 37.34 37.83 37.14 47.06 38.17 38.55 44.82 40.20 43.13 44.21 42.20 41.00 37.32 39.03 34.65 32.22 40.78 43.73 45.60 45.71 44.24 44.24 44.64 44.20 44.88 44.23 43.00 41.71 38.35 35.89 34.58
45.21 45.21 45.42 45.71 45.81 46.10 46.12 46.57 47.54 48.19 48.48 48.50 49.18 49.32 52.18 49.73 45.60 48.61 48.33 49.00 54.38 49.13 38.01 34.04 35.08 33.33 44.57 39.59 39.24 38.41 42.40 35.49 42.64 35.50 37.45 39.77 35.30 35.38 39.61 41.71 43.20 43.73 42.87 42.32 43.82 44.58 44.54 42.76 40.24 38.00 36.41 35.23 33.87 32.96
45.31 45.11 45.28 45.58 45.85 46.25 46.34 46.16 47.18 48.12 48.13 48.50 49.69 46.76 39.11 43.08 47.54 48.37 49.38 43.86 40.69 40.38 40.54 35.67 39.37 36.72 42.12 35.85 34.76 35.65 34.40 33.84 33.66 35.39 39.10 33.30 36.01 40.38 43.20 43.54 43.42 43.28 44.23 44.60 41.42 39.54 39.24 37.79 35.16 34.82 34.57 34.65 34.06 32.73
45.78 45.45 45.50 45.87 45.96 46.12 46.73 47.18 47.54 47.70 48.14 45.46 39.82 36.94 43.27 47.11 47.75 42.06 38.04 36.16 37.94 35.35 39.26 38.96 39.14 37.20 40.60 35.00 34.20 35.11 33.11 33.30 31.49 31.09 34.11 31.20 32.14 36.55 41.25 42.23 42.85 44.31 44.46 43.08 40.92 39.71 38.40 36.57 34.89 34.08 33.61 32.31 31.66 30.85
45.98 45.89 45.82 46.26 45.80 46.03 46.64 46.80 47.05 45.79 43.59 43.67 43.22 44.50 42.90 39.52 36.19 35.85 34.40 34.20 34.58 34.85 35.24 35.11 36.74 39.08 36.72 41.61 34.49 33.66 33.25 32.56 29.65 35.22 32.19 28.99 32.39 39.73 40.64 40.50 41.84 40.82 39.90 38.46 38.34 36.71 36.44 36.31 35.33 32.73 31.66 31.25 31.44 30.93
44.88 45.68 45.84 46.37 46.21 45.89 45.75 45.75 45.53 45.15 45.03 42.38 38.19 34.53 36.86 32.16 31.24 31.44 30.11 31.61 32.22 32.56 33.81 33.45 32.93 33.82 35.16 36.58 32.75 32.53 31.62 30.57 33.40 31.45 29.30 29.23 38.54 40.22 40.66 35.62 35.08 36.09 34.85 35.04 35.62 35.78 35.01 34.28 33.66 30.62 29.35 30.71 26.78 30.16
44.21 45.54 45.59 45.78 46.08 45.51 45.00 44.60 45.11 45.41 41.16 34.77 33.46 30.64 31.42 30.69 30.69 30.32 31.05 31.61 32.21 32.39 32.57 32.93 32.18 32.74 32.21 32.39 31.98 30.29 31.06 31.24 28.11 25.20 22.67 33.19 36.88 38.00 38.32 35.22 33.78 32.25 30.79 30.94 31.89 32.41 30.69 30.40 29.98 28.44 28.50 28.11 23.86 28.02
44.00 45.08 45.58 44.53 44.78 44.38 44.67 44.69 44.77 44.29 39.26 33.43 33.39 29.72 30.13 31.44 31.83 32.00 32.19 32.19 32.69 34.49 33.30 32.54 32.37 33.43 31.45 30.13 31.09 29.56 26.97 26.20 27.91 28.11 30.74 32.98 34.77 35.26 33.57 33.62 31.42 29.97 29.25 30.45 31.70 30.51 27.71 27.05 28.25 29.96 30.06 29.96 30.40 26.81
43.75 44.27 44.49 44.60 44.10 44.37 44.39 45.09 43.20 40.68 33.38 32.74 32.53 30.05 32.18 32.19 31.85 32.06 32.06 31.88 35.01 32.93 33.66 33.28 31.27 31.26 29.21 29.78 28.10 28.08 27.12 25.86 29.24 31.29 31.86 32.85 32.65 32.37 32.68 32.69 32.33 32.58 31.60 31.69 31.84 31.35 30.27 27.07 25.31 30.19 30.32 29.41 26.74 28.86
43.41 42.55 44.58 43.45 43.33 43.53 43.85 41.24 38.41 33.36 32.88 32.00 30.70 33.43 32.51 32.28 32.11 32.42 32.77 33.30 36.91 33.30 31.62 31.83 29.14 26.57 29.45 27.37 27.14 30.17 28.11 31.05 32.48 31.64 31.80 32.51 32.28 32.41 32.64 32.90 31.11 31.72 31.98 31.90 31.90 31.43 30.93 30.76 26.99 27.57 28.70 31.66 30.81 30.98
41.49 43.77 44.36 44.44 44.62 43.68 39.18 39.49 35.12 32.54 28.80 29.95 31.34 31.83 32.66 32.93 32.39 32.72 33.31 34.22 34.02 31.34 30.66 29.12 30.82 27.36 26.97 25.27 26.45 30.11 30.59 31.33 31.60 30.68 30.98 32.13 32.53 32.54 33.51 31.75 33.63 31.64 31.21 30.82 29.98 30.63 30.60 26.79 29.26 30.23 31.13 32.01 31.04 30.00
42.97 44.24 44.03 43.50 42.26 39.25 34.10 34.63 36.47 30.02 30.35 31.94 31.75 32.00 31.96 31.96 32.69 32.92 32.75 33.48 33.99 33.78 32.14 29.27 26.89 25.66 26.42 28.09 29.70 30.22 29.83 29.63 29.43 30.48 31.46 32.33 32.41 31.95 32.04 31.77 31.34 30.75 30.95 30.85 31.05 29.94 30.28 31.56 30.81 30.79 30.74 30.30 29.77 29.82
42.87 42.78 42.78 42.58 42.14 34.92 32.56 32.88 36.54 30.74 30.32 31.53 31.83 31.07 30.93 30.44 31.48 32.03 32.57 32.93 32.81 32.48 30.35 25.35 26.07 28.62 29.02 30.12 30.83 31.19 31.27 31.03 30.27 28.58 29.29 30.52 31.18 31.99 31.10 30.49 30.03 31.44 30.89 31.43 30.75 27.64 29.26 29.57 29.76 30.14 29.45 27.21 24.17 28.14
41.95 40.37 40.75 40.40 36.26 37.57 33.38 32.44 32.07 32.91 29.61 29.41 31.49 31.19 28.38 30.26 30.30 31.04 31.83 32.53 32.37 31.44 29.67 27.32 27.89 29.74 32.27 31.05 31.09 30.97 31.59 31.83 30.14 28.84 28.11 28.01 29.69 29.28 29.45 30.28 30.79 29.31 28.27 27.14 25.98 28.48 26.01 28.81 31.68 30.35 30.00 28.79 32.29 32.38
38.72 40.07 34.86 35.88 32.50 32.33 31.44 33.33 31.45 29.74 30.54 29.58 30.31 30.18 26.37 27.21 28.16 29.18 30.68 29.76 29.56 27.53 30.29 28.45 30.31 29.90 30.53 31.72 32.01 32.46 32.44 31.55 31.33 29.52 28.34 27.51 27.25 27.59 27.83 28.29 27.02 25.30 25.47 26.04 27.85 28.74 28.96 29.92 27.98 26.69 31.26 32.30 32.50 31.26
38.09 36.31 33.10 32.37 30.66 30.27 27.68 32.45 30.63 30.50 24.70 26.93 29.78 27.07 26.53 26.67 28.14 29.51 26.84 28.30 27.08 30.91 30.99 31.98 32.87 32.78 31.78 32.19 31.29 31.25 31.42 31.00 27.77 27.58 29.07 28.51 27.88 27.32 27.55 28.44 26.22 24.28 27.29 28.70 28.52 28.71 28.94 28.39 30.91 28.75 27.35 31.24 30.89 31.03
37.33 32.54 29.90 30.08 30.29 26.44 30.88 27.19 29.89 28.77 28.30 26.66 25.82 24.44 26.37 26.56 24.74 24.49 22.74 21.56 26.87 29.90 30.15 30.40 29.88 28.47 28.88 29.76 28.91 28.73 29.13 30.02 28.93 28.80 29.44 28.40 27.43 27.93 28.78 28.55 28.41 28.00 28.12 28.85 28.37 28.89 30.02 31.42 27.02 27.43 30.18 30.01 30.00 29.70
29.08 23.35 25.06 25.60 29.92 25.15 18.59 24.94 26.18 23.67 23.09 24.10 23.69 23.47 20.48 20.86 18.42 15.07 16.52 23.15 27.21 27.14 28.65 28.26 29.45 29.29 27.94 27.45 27.27 26.70 26.78 25.66 23.93 23.22 25.10 24.99 23.27 22.50 23.36 24.33 24.56 24.29 25.17 24.22 24.49 25.30 24.75 26.85 27.46 27.70 28.24 27.50 27.37 23.10
25.08 23.93 20.76 26.42 26.72 23.90 22.29 22.97 23.85 22.79 21.19 23.97 22.91 24.16 20.98 17.84 13.30 12.89 24.12 26.57 25.87 25.92 26.15 25.57 23.17 23.91 25.13 25.41 23.92 23.60 23.97 24.04 22.51 20.19 21.84 22.68 23.56 23.03 20.24 19.08 18.27 18.13 20.48 22.28 21.83 21.01 20.19 20.56 22.11 23.25 25.60 27.71 26.39 25.75
23.52 24.43 28.03 29.76 29.57 28.44 26.79 26.97 26.39 24.03 22.03 20.67 23.29 21.23 14.63 10.03 10.96 22.04 25.03 24.65 25.19 26.03 27.62 26.83 25.54 24.27 23.83 23.83 24.33 25.17 22.57 20.29 18.96 20.63 22.31 23.85 21.93 20.17 18.20 15.49 15.04 17.29 18.97 19.78 18.34 17.96 18.42 19.57 20.25 20.33 22.46 23.42 24.99 25.78
27.69 28.01 23.53 26.91 27.52 27.79 23.67 22.76 21.91 20.68 21.69 25.26 22.56 15.17 13.20 12.79 17.77 22.56 22.79 24.17 24.40 26.39 26.49 24.04 23.75 21.97 23.59 22.02 23.89 18.07 13.36 13.80 14.70 15.31 16.51 22.63 19.26 15.04 14.13 14.66 15.76 16.77 14.57 16.56 15.22 16.50 17.40 17.91 18.94 20.18 21.69 22.29 23.12 20.41
26.53 28.70 25.98 20.41 22.27 23.10 21.00 19.97 20.35 24.66 27.69 23.87 17.40 16.19 19.18 19.66 19.06 21.25 21.56 22.22 23.52 22.57 19.58 17.86 15.57 18.18 17.73 15.87 18.79 17.03 9.14 7.43 7.06 3.23 0.61 0.76 6.53 7.84 12.37 12.97 12.12 10.93 11.87 13.64 14.45 16.26 16.39 17.91 18.88 18.59 21.04 19.32 17.47 14.26
25.48 27.97 21.10 17.74 15.75 19.65 25.66 27.98 28.50 29.18 25.90 26.91 25.05 21.59 19.19 17.18 17.62 18.07 18.06 16.72 14.34 14.08 16.74 17.79 12.20 7.49 5.85 4.38 5.04 7.45 14.60 9.37 3.14 3.00 0.33 0.33 7.35 9.82 10.04 9.40 9.43 8.79 9.95 10.92 9.78 10.99 14.15 16.83 17.64 19.74 14.60 14.44 14.35 10.38
27.27 27.45 25.67 24.11 25.32 26.84 27.52 27.34 28.08 27.85 28.45 28.73 27.11 19.48 13.77 12.76 12.67 14.29 13.32 16.13 13.74 9.94 8.77 5.89 6.14 6.62 2.25 3.36 6.75 2.13 1.66 2.47 4.91 9.86 5.76 2.77 4.76 1.32 3.63 7.23 6.88 7.69 8.76 6.46 6.47 7.83 10.08 13.27 14.87 13.45 9.01 9.27 8.59 6.63
26.74 24.46 24.94 21.43 24.58 26.86 27.59 25.69 25.67 25.61 26.36 25.18 23.37 21.10 17.49 13.02 6.29 8.04 6.98 10.59 6.28 3.81 4.08 2.59 1.93 4.95 3.43 5.61 7.90 5.08 13.19 8.29 6.22 2.46 3.27 5.77 3.84 2.08 2.10 4.37 6.02 7.01 2.82 3.42 5.25 5.48 10.89 10.03 9.32 7.72 6.83 4.50 3.45 2.57
22.54 19.15 19.39 15.62 14.67 14.13 21.79 15.17 14.69 13.34 14.18 13.20 16.96 13.86 9.24 8.07 2.99 6.92 11.39 10.09 5.10 1.79 1.71 1.52 1.14 1.67 8.43 3.46 0.18 6.73 1.84 -0.36 2.11 11.43 10.73 10.44 6.23 3.51 0.41 2.77 6.13 5.12 0.24 2.93 3.38 8.23 7.64 6.81 3.98 2.92 1.51 0.28 -1.30 -2.18
MSLP
1007.08 1008.08 1008.97 1009.81 1010.57 1011.25 1011.73 1012.13 1012.49 1012.70 1012.83 1012.94 1012.88 1012.72 1012.54 1012.37 1012.15 1011.84 1012.30 1011.83 1012.15 1013.21 1013.09 1012.77 1012.51 1012.64 1013.28 1014.36 1015.91 1016.86 1017.92 1018.40 1020.09 1021.91 1023.14 1023.71 1023.39 1022.57 1022.43 1022.34 1022.76 1023.69 1024.78 1025.38 1025.41 1024.71 1022.15 1019.54 1019.55 1019.89 1020.25 1020.45 1020.99 1021.51
1007.56 1008.38 1009.32 1010.13 1010.82 1011.43 1011.87 1012.26 1012.65 1012.86 1013.02 1013.16 1013.08 1012.93 1012.77 1012.55 1012.37 1011.98 1012.43 1011.93 1011.95 1012.90 1013.68 1013.36 1013.38 1013.21 1013.12 1013.68 1014.47 1015.91 1016.72 1017.62 1018.84 1021.05 1022.40 1022.95 1023.46 1023.10 1022.86 1022.33 1021.35 1022.16 1021.63 1022.17 1022.65 1021.44 1019.58 1018.74 1018.68 1018.89 1019.44 1020.23 1020.98 1021.28
1008.32 1009.12 1009.88 1010.61 1011.19 1011.73 1012.12 1012.45 1012.79 1013.01 1013.21 1013.37 1013.34 1013.23 1013.07 1012.82 1012.62 1012.50 1012.66 1012.56 1012.51 1013.64 1014.09 1013.79 1013.78 1013.67 1013.25 1013.45 1013.58 1014.99 1016.23 1016.57 1017.96 1018.79 1021.36 1022.77 1023.38 1022.95 1022.75 1021.82 1020.61 1019.73 1019.57 1020.18 1020.33 1019.31 1018.69 1018.58 1018.59 1018.83 1019.42 1020.12 1020.66 1021.10
1009.48 1010.00 1010.56 1011.12 1011.62 1012.05 1012.35 1012.66 1012.98 1013.20 1013.41 1013.56 1013.56 1013.50 1013.39 1013.15 1012.91 1012.78 1012.93 1012.98 1013.45 1014.77 1015.42 1014.90 1014.05 1014.01 1013.85 1013.66 1013.78 1014.12 1015.00 1016.01 1017.54 1019.26 1021.42 1022.35 1022.54 1021.56 1021.75 1020.67 1020.26 1019.18 1018.65 1018.80 1019.06 1018.56 1018.48 1018.89 1018.91 1019.34 1019.77 1020.16 1020.55 1020.76
1010.65 1010.85 1011.32 1011.63 1011.94 1012.27 1012.60 1012.87 1013.16 1013.43 1013.64 1013.86 1013.91 1013.89 1013.78 1013.57 1013.28 1013.08 1013.01 1013.27 1013.38 1014.17 1015.59 1015.51 1014.73 1014.58 1014.27 1014.25 1014.41 1014.64 1015.29 1016.50 1018.17 1020.23 1021.51 1021.78 1021.16 1020.89 1020.70 1020.43 1019.78 1018.31 1017.97 1018.36 1018.03 1018.04 1018.33 1019.05 1019.26 1019.49 1019.86 1020.23 1020.57 1020.87
1011.50 1011.79 1012.14 1012.39 1012.54 1012.58 1012.81 1013.14 1013.38 1013.63 1013.88 1014.05 1014.09 1014.11 1014.04 1013.84 1013.62 1013.52 1013.96 1014.03 1013.97 1013.97 1015.63 1016.42 1015.85 1015.29 1015.01 1014.84 1015.08 1015.53 1016.03 1016.83 1017.95 1019.58 1020.63 1020.35 1019.27 1019.63 1020.45 1020.13 1018.16 1017.33 1017.06 1016.91 1017.35 1017.66 1017.97 1018.64 1019.07 1019.40 1019.90 1020.32 1020.73 1021.14
1012.73 1012.71 1012.62 1012.83 1013.03 1013.00 1013.06 1013.12 1013.36 1013.74 1014.08 1014.19 1014.24 1014.30 1014.28 1014.03 1013.88 1014.49 1014.88 1014.99 1014.57 1014.49 1015.88 1017.22 1016.92 1016.50 1016.04 1015.83 1016.48 1016.69 1016.78 1017.44 1018.14 1019.17 1020.08 1020.32 1019.59 1019.20 1019.66 1019.06 1017.76 1016.93 1016.48 1016.66 1016.97 1017.57 1018.45 1018.63 1018.99 1019.48 1019.96 1020.57 1021.02 1021.63
1013.42 1013.46 1013.55 1013.29 1013.15 1013.35 1013.49 1013.41 1013.50 1013.88 1014.22 1014.41 1014.44 1014.50 1014.50 1014.48 1014.82 1015.05 1014.89 1014.73 1014.69 1015.04 1016.13 1017.81 1018.11 1017.85 1017.03 1017.45 1018.22 1018.30 1018.62 1018.63 1018.83 1019.45 1019.85 1020.06 1019.45 1019.30 1018.79 1017.22 1016.51 1016.17 1016.09 1016.68 1016.98 1017.27 1017.74 1018.37 1019.00 1019.61 1020.26 1020.93 1021.64 1022.29
1014.06 1014.03 1013.97 1013.71 1013.55 1013.73 1013.80 1013.80 1013.72 1013.96 1014.30 1014.48 1014.50 1014.63 1014.71 1015.00 1015.55 1015.67 1015.19 1014.83 1014.54 1015.56 1016.93 1018.23 1018.57 1018.39 1017.83 1018.88 1019.29 1019.51 1019.44 1019.84 1019.68 1019.86 1019.95 1019.96 1019.53 1018.75 1016.94 1016.34 1015.89 1015.57 1015.60 1016.41 1017.01 1017.52 1018.06 1018.62 1019.34 1020.23 1020.86 1021.53 1022.20 1022.89
1014.49 1014.41 1014.29 1014.00 1013.99 1014.01 1014.02 1014.10 1014.06 1014.08 1014.44 1014.68 1014.86 1015.48 1016.16 1016.30 1016.20 1015.80 1015.39 1015.46 1015.62 1015.83 1016.94 1017.99 1018.06 1018.55 1018.45 1019.51 1020.14 1020.72 1020.75 1020.66 1020.39 1020.18 1020.03 1019.65 1018.10 1016.83 1016.21 1015.85 1015.56 1015.26 1015.36 1015.92 1016.72 1018.04 1018.62 1019.05 1019.96 1020.87 1021.60 1022.17 1022.76 1023.30
1014.92 1014.78 1014.71 1014.37 1014.26 1014.21 1014.19 1014.24 1014.22 1014.40 1014.69 1015.15 1015.85 1016.50 1016.89 1016.59 1016.46 1016.66 1016.84 1017.17 1017.31 1017.68 1017.53 1017.66 1017.89 1018.18 1018.50 1019.40 1020.28 1020.64 1020.90 1020.84 1020.72 1020.23 1020.26 1019.24 1017.89 1016.75 1015.60 1015.77 1015.86 1015.93 1016.16 1016.68 1017.28 1018.28 1019.13 1019.84 1020.75 1021.70 1022.43 1022.95 1023.34 1023.63
1015.47 1015.25 1015.18 1015.01 1014.92 1014.84 1014.73 1014.75 1014.70 1014.84 1015.63 1015.84 1016.10 1016.84 1017.09 1017.50 1017.65 1017.68 1017.70 1017.93 1017.96 1018.21 1018.25 1018.21 1018.34 1018.47 1018.87 1018.85 1019.90 1020.71 1020.80 1020.96 1020.43 1020.14 1020.27 1018.96 1017.52 1016.14 1015.92 1016.33 1016.52 1016.83 1017.39 1018.31 1019.08 1019.70 1020.16 1020.85 1021.67 1022.48 1023.08 1023.44 1023.78 1023.85
1016.02 1015.89 1015.68 1015.55 1015.51 1015.50 1015.38 1015.32 1015.46 1015.61 1015.79 1016.38 1016.92 1017.81 1018.05 1018.99 1018.74 1018.42 1018.34 1018.59 1018.87 1018.99 1019.02 1019.02 1019.24 1019.35 1019.46 1019.63 1020.03 1020.28 1020.34 1020.25 1019.92 1020.08 1019.55 1018.78 1017.76 1017.30 1017.15 1017.63 1018.14 1018.49 1019.12 1019.71 1020.29 1020.70 1021.31 1022.06 1022.52 1023.04 1023.38 1023.49 1023.70 1023.90
1016.50 1016.40 1016.37 1016.19 1016.12 1016.19 1015.97 1015.80 1015.67 1015.69 1016.17 1017.69 1018.35 1018.90 1019.18 1019.55 1019.61 1019.60 1019.74 1019.66 1019.84 1019.71 1019.65 1019.64 1019.76 1019.76 1019.81 1019.92 1019.96 1019.89 1019.94 1019.99 1019.97 1019.83 1019.73 1019.26 1018.91 1018.54 1018.52 1018.78 1019.01 1020.09 1020.68 1021.04 1021.35 1021.71 1022.13 1022.46 1022.82 1023.20 1023.26 1023.28 1023.62 1023.56
1017.15 1017.04 1016.88 1016.85 1016.67 1016.56 1016.43 1016.16 1016.03 1015.99 1016.96 1018.29 1018.69 1019.35 1019.79 1020.14 1020.12 1020.23 1020.36 1020.27 1020.28 1020.09 1020.02 1020.12 1020.16 1020.14 1020.23 1020.20 1020.08 1020.22 1020.32 1020.04 1019.98 1020.10 1020.31 1020.25 1019.99 1019.84 1019.79 1019.95 1020.31 1020.89 1021.29 1021.60 1021.88 1022.16 1022.41 1022.67 1022.89 1023.05 1022.96 1022.94 1022.96 1023.02
1017.36 1017.23 1017.47 1017.39 1017.34 1017.04 1016.73 1016.49 1016.65 1016.99 1017.86 1018.78 1019.38 1019.74 1020.06 1020.20 1020.34 1020.43 1020.57 1020.61 1020.55 1020.64 1020.41 1020.23 1020.35 1020.42 1020.60 1020.49 1020.40 1020.17 1020.27 1020.29 1020.58 1020.96 1021.03 1020.85 1020.66 1020.52 1020.61 1020.89 1021.15 1021.32 1021.64 1021.94 1022.13 1022.26 1022.40 1022.52 1022.65 1022.68 1022.54 1022.53 1022.49 1022.62
1017.47 1017.65 1017.75 1017.74 1017.56 1017.33 1017.02 1017.10 1017.51 1018.33 1019.00 1019.43 1019.85 1019.87 1020.10 1020.29 1020.59 1020.71 1020.79 1020.87 1020.71 1020.77 1020.66 1020.51 1020.58 1020.96 1020.94 1020.75 1020.65 1020.58 1020.73 1021.12 1021.14 1021.10 1020.90 1020.93 1021.02 1021.06 1021.06 1021.15 1021.31 1021.57 1021.83 1021.96 1022.02 1022.10 1022.17 1022.07 1022.09 1022.47 1022.39 1021.96 1021.85 1021.71
1018.06 1018.01 1017.99 1017.93 1017.85 1017.72 1018.05 1018.28 1018.76 1019.12 1019.58 1019.81 1020.04 1020.31 1020.47 1020.67 1021.06 1021.26 1021.24 1021.25 1021.13 1020.90 1020.78 1020.74 1020.74 1021.10 1021.04 1020.94 1020.93 1021.00 1020.95 1020.93 1020.87 1021.13 1021.28 1021.33 1021.35 1021.38 1021.37 1021.51 1021.56 1021.69 1021.79 1021.86 1021.87 1021.91 1021.87 1021.97 1022.03 1021.98 1021.78 1021.38 1021.15 1021.04
1018.75 1018.51 1018.52 1018.51 1018.55 1018.63 1019.21 1019.44 1019.30 1019.61 1020.03 1020.14 1020.44 1020.66 1020.94 1021.28 1021.45 1021.60 1021.54 1021.31 1021.15 1021.07 1021.11 1021.05 1021.17 1021.28 1021.14 1021.04 1021.07 1021.05 1021.02 1021.28 1021.58 1021.56 1021.61 1021.57 1021.60 1021.63 1021.59 1021.62 1021.63 1021.66 1021.67 1021.69 1021.64 1021.60 1021.64 1021.48 1021.46 1021.31 1021.06 1020.89 1020.95 1020.53
1019.03 1019.03 1019.02 1018.99 1018.98 1019.16 1019.58 1019.70 1019.54 1019.68 1020.06 1020.38 1020.47 1020.92 1021.34 1021.73 1021.94 1021.93 1021.81 1021.64 1021.49 1021.47 1021.44 1021.59 1021.46 1021.08 1021.15 1021.09 1020.98 1021.19 1021.33 1021.35 1021.63 1021.95 1021.99 1021.86 1021.70 1021.72 1021.77 1021.80 1021.69 1021.70 1021.62 1021.52 1021.43 1021.28 1021.34 1021.15 1020.84 1020.63 1020.49 1020.63 1020.91 1020.68
1019.17 1019.78 1019.65 1019.63 1019.88 1019.71 1019.76 1019.80 1019.86 1019.78 1020.12 1020.52 1020.78 1021.07 1021.80 1021.98 1022.10 1022.06 1022.03 1021.90 1021.87 1021.75 1021.48 1021.26 1021.20 1020.86 1020.74 1020.89 1021.00 1021.10 1021.32 1021.44 1021.77 1022.02 1022.34 1022.33 1022.08 1022.03 1021.92 1021.83 1021.63 1021.70 1021.71 1021.57 1021.41 1021.18 1021.05 1020.84 1020.49 1020.23 1020.07 1020.14 1019.98 1019.86
1020.11 1020.04 1020.40 1020.60 1020.71 1020.56 1020.26 1019.82 1019.91 1019.87 1020.46 1020.77 1021.05 1021.25 1021.87 1022.02 1022.16 1022.23 1022.23 1022.16 1021.86 1021.42 1021.15 1020.84 1020.76 1020.88 1021.05 1021.29 1021.29 1021.35 1021.45 1021.69 1021.92 1022.15 1022.14 1022.33 1022.55 1022.33 1022.17 1022.04 1022.04 1021.90 1021.68 1021.52 1021.27 1020.94 1020.57 1020.16 1019.96 1019.99 1020.01 1019.83 1019.55 1019.35
1020.28 1020.55 1020.84 1021.01 1021.01 1020.86 1020.69 1020.17 1020.02 1020.25 1020.63 1020.93 1021.05 1021.49 1021.90 1022.14 1022.36 1022.52 1022.53 1022.17 1021.82 1021.13 1021.01 1021.02 1021.09 1021.07 1021.29 1021.39 1021.39 1021.59 1021.79 1022.11 1022.37 1022.55 1022.73 1022.72 1022.67 1022.39 1022.42 1022.28 1022.21 1022.47 1022.01 1021.52 1021.16 1020.93 1020.61 1020.14 1019.96 1019.76 1019.52 1019.38 1019.14 1018.80
1020.68 1020.96 1021.03 1020.97 1020.86 1020.63 1020.55 1020.35 1020.25 1020.33 1020.49 1020.92 1021.26 1021.56 1021.99 1022.32 1022.85 1022.88 1022.79 1022.43 1022.03 1021.86 1021.89 1021.84 1021.50 1021.68 1021.67 1021.86 1022.66 1023.10 1023.41 1023.23 1023.26 1023.32 1023.38 1023.42 1023.45 1023.44 1023.43 1023.28 1023.04 1022.86 1022.65 1022.19 1021.75 1021.34 1020.83 1020.27 1019.72 1019.26 1019.09 1018.86 1018.59 1018.40
1021.12 1021.15 1021.11 1020.58 1020.61 1020.67 1020.48 1020.33 1020.25 1020.33 1020.40 1020.71 1021.16 1021.71 1022.35 1022.72 1023.12 1023.19 1023.06 1022.88 1023.10 1023.04 1023.06 1023.07 1022.81 1022.69 1023.01 1023.41 1023.82 1024.28 1024.56 1024.69 1024.84 1024.84 1024.56 1024.55 1024.56 1024.32 1024.08 1023.83 1023.55 1023.65 1023.58 1023.10 1022.56 1022.01 1021.47 1020.85 1020.23 1019.54 1018.96 1018.50 1018.14 1018.20
1020.44 1020.40 1020.51 1019.96 1020.03 1019.91 1019.72 1019.88 1019.88 1019.86 1020.23 1020.63 1021.25 1021.91 1022.43 1022.96 1023.39 1023.60 1023.40 1023.75 1023.96 1024.26 1024.39 1024.39 1024.44 1024.30 1024.45 1024.78 1024.97 1025.24 1025.67 1025.69 1025.74 1025.79 1025.59 1025.46 1025.25 1025.14 1025.15 1024.97 1024.78 1024.58 1024.64 1024.23 1023.62 1022.89 1022.24 1021.50 1020.72 1019.98 1019.21 1018.61 1018.25 1017.94
1019.97 1019.87 1019.88 1019.92 1019.76 1019.59 1019.60 1019.59 1019.57 1019.79 1020.10 1020.44 1021.32 1022.34 1023.05 1023.57 1023.68 1024.01 1024.49 1024.85 1024.97 1025.19 1025.25 1025.36 1025.41 1025.61 1025.80 1025.94 1026.11 1026.36 1026.71 1026.79 1026.80 1026.54 1026.04 1025.90 1026.17 1026.45 1026.54 1026.44 1026.04 1025.92 1025.45 1024.81 1024.35 1023.73 1022.82 1021.91 1021.14 1020.50 1019.68 1018.97 1018.59 1018.24
1019.69 1019.70 1019.79 1019.94 1019.79 1019.79 1019.79 1019.91 1020.00 1019.92 1020.04 1020.19 1021.28 1022.39 1023.15 1023.72 1024.64 1025.22 1025.66 1026.05 1026.02 1026.10 1026.27 1026.61 1026.75 1026.92 1026.95 1026.92 1026.89 1027.34 1027.62 1027.57 1027.32 1026.93 1026.34 1026.49 1026.81 1027.12 1027.26 1027.13 1026.83 1026.55 1026.02 1025.36 1024.79 1024.02 1023.26 1022.45 1021.48 1020.69 1019.86 1019.19 1018.79 1018.94
1019.80 1019.81 1019.91 1020.14 1020.10 1020.11 1020.12 1020.12 1020.05 1019.91 1020.06 1020.37 1021.41 1022.74 1024.10 1025.35 1026.40 1026.51 1026.87 1026.93 1026.93 1027.01 1027.36 1027.58 1027.85 1027.80 1027.90 1027.87 1027.91 1028.11 1028.29 1028.70 1028.56 1028.60 1028.58 1028.50 1028.04 1027.90 1027.82 1027.58 1027.28 1026.87 1026.34 1025.58 1024.93 1024.28 1023.43 1022.53 1021.58 1020.73 1019.87 1019.76 1019.95 1020.25
1020.32 1020.20 1020.27 1020.40 1020.56 1020.56 1020.85 1020.77 1020.71 1020.84 1020.61 1020.90 1021.70 1023.44 1025.14 1026.77 1027.68 1027.74 1027.84 1027.95 1028.18 1028.35 1028.42 1028.51 1028.76 1028.95 1029.27 1029.42 1029.31 1029.15 1029.03 1029.12 1029.42 1029.54 1029.55 1029.48 1029.11 1028.76 1028.46 1028.16 1027.72 1027.30 1026.70 1025.98 1025.29 1024.31 1023.37 1022.40 1021.61 1020.83 1020.76 1020.73 1020.87 1021.41
1020.72 1020.54 1020.58 1020.64 1020.78 1021.18 1021.33 1021.45 1021.39 1021.44 1021.41 1021.63 1022.08 1023.66 1025.75 1027.42 1028.54 1028.88 1029.03 1028.88 1028.99 1029.18 1029.43 1029.87 1029.99 1030.10 1030.08 1030.06 1029.88 1029.69 1029.89 1029.70 1029.70 1029.80 1029.74 1029.44 1029.22 1029.14 1028.92 1028.53 1028.07 1027.50 1026.84 1026.39 1025.68 1024.78 1023.93 1022.96 1022.34 1022.07 1022.14 1022.23 1022.41 1022.66
1021.06 1021.19 1021.10 1021.15 1021.43 1021.71 1021.66 1021.81 1021.81 1021.89 1021.88 1022.44 1023.18 1024.42 1026.05 1026.98 1028.68 1029.63 1030.11 1029.72 1029.84 1030.41 1030.65 1030.78 1030.98 1030.80 1030.32 1030.11 1030.10 1030.12 1030.16 1030.29 1030.27 1030.25 1029.56 1029.23 1029.31 1029.36 1029.01 1028.44 1027.87 1027.36 1026.92 1026.53 1025.79 1025.10 1024.06 1023.76 1023.53 1023.44 1023.38 1023.57 1023.82 1024.05
1021.72 1021.79 1021.90 1021.93 1022.01 1022.07 1022.20 1022.41 1022.34 1022.71 1022.77 1023.38 1024.46 1025.46 1026.90 1027.80 1029.24 1029.98 1030.13 1030.15 1030.53 1030.87 1031.44 1031.32 1031.04 1030.83 1030.55 1030.47 1030.42 1030.66 1030.67 1030.65 1030.19 1029.46 1029.23 1029.12 1029.20 1029.01 1028.78 1028.26 1027.66 1027.34 1027.21 1026.79 1026.16 1025.20 1024.89 1024.68 1024.68 1024.72 1024.79 1024.78 1024.91 1025.25
Wind_Speed
21 19 17 15 13 11 11 9 8 7 7 7 7 8 10 11 12 5 1 2 3 3 3 7 8 4 4 5 6 5 6 5 4 4 4 4 3 5 3 7 8 8 7 5 3 2 9 7 4 8 7 4 7 5
20 18 16 14 13 11 10 9 8 7 6 6 7 8 9 11 12 5 3 2 2 5 3 1 3 3 4 2 7 4 8 5 5 5 1 3 1 0 2 3 4 2 9 8 10 9 8 6 8 5 6 5 5 5
19 17 15 13 12 11 9 8 6 6 6 6 6 7 9 11 12 7 2 3 4 4 4 4 4 5 5 5 1 7 3 6 4 4 4 3 4 4 4 6 1 3 6 4 5 6 6 7 4 6 6 8 7 6
22 18 15 13 12 12 9 8 6 5 5 5 7 9 10 11 12 7 3 3 5 4 6 4 3 3 4 5 5 3 6 7 7 4 4 4 3 5 5 5 5 6 2 2 3 3 5 6 7 7 7 5 6 6
20 20 16 14 12 10 7 7 6 5 6 6 7 8 10 11 11 3 2 3 3 5 5 3 2 3 2 4 5 5 7 6 4 3 3 4 3 3 2 3 3 4 6 4 7 4 5 4 6 7 5 6 6 5
18 17 16 14 12 11 8 6 5 6 5 5 6 7 9 11 9 3 3 4 5 3 6 2 3 1 1 4 2 4 2 3 4 5 4 3 4 5 3 4 5 7 7 6 4 4 7 9 6 6 4 6 8 7
16 15 15 13 12 12 10 7 6 6 5 5 6 6 8 10 4 3 4 2 5 2 5 3 3 5 3 2 4 4 4 2 3 3 2 3 3 4 3 5 6 7 7 6 11 10 5 6 4 7 8 7 6 5
14 14 12 12 12 11 10 9 7 7 6 6 6 5 4 4 4 2 1 3 3 4 4 4 2 4 3 2 3 3 2 3 4 1 2 2 3 3 4 7 8 10 8 9 8 6 6 8 6 8 6 7 7 7
12 12 12 12 12 11 10 8 7 9 9 8 7 3 2 4 3 2 9 8 1 4 4 3 6 5 2 2 2 4 2 2 2 1 1 2 2 6 7 7 7 7 7 12 9 8 6 9 9 8 8 7 7 5
12 11 12 12 11 10 10 7 6 10 11 9 4 3 2 2 10 6 3 3 5 3 3 3 3 2 4 1 1 3 2 2 2 4 1 2 6 4 5 2 3 6 11 13 10 7 8 8 9 7 7 6 6 2
11 11 11 12 12 11 10 11 12 13 7 3 2 2 2 6 1 3 1 3 1 2 2 3 5 5 2 4 3 1 3 1 2 4 5 4 4 5 8 5 6 6 8 10 13 13 10 10 8 7 5 3 1 3
11 11 11 12 14 15 11 6 5 5 2 4 4 3 3 4 3 3 3 1 2 4 3 1 1 2 1 2 4 2 4 2 6 3 2 4 4 5 9 8 8 12 15 15 13 11 11 11 8 6 2 3 4 3
11 11 11 10 11 12 13 13 14 13 5 3 5 5 3 3 2 4 5 1 1 3 2 2 2 2 2 3 3 3 6 6 2 4 4 4 1 5 10 11 14 13 12 11 11 9 9 6 3 2 3 4 4 4
10 10 10 10 10 10 11 11 9 2 5 4 2 4 2 2 2 1 1 0 1 1 1 1 2 1 1 2 2 4 1 2 3 3 4 0 7 9 8 7 12 8 9 8 7 6 2 3 4 4 4 4 3 5
9 6 6 9 9 9 9 10 10 3 4 3 2 3 2 1 0 0 0 0 2 1 2 2 2 2 1 2 1 3 1 2 1 1 2 2 4 5 6 6 7 7 5 4 3 0 3 3 3 5 5 5 5 5
9 3 4 5 6 6 8 5 5 4 4 4 3 3 1 1 1 1 1 1 1 1 1 1 2 2 3 1 1 0 3 1 3 2 3 3 4 4 4 5 5 5 5 3 2 3 4 4 4 6 4 4 5 7
7 3 4 4 6 6 10 4 4 4 3 2 2 1 2 2 3 1 1 1 1 1 1 1 3 1 0 1 1 2 2 2 3 2 2 4 4 3 3 3 1 1 3 5 3 4 4 4 3 2 6 7 7 7
4 1 4 1 4 3 4 4 3 2 3 2 1 2 2 2 2 1 1 2 2 1 1 2 3 1 0 0 1 2 2 0 2 3 3 2 3 2 2 1 2 2 3 4 4 4 3 3 5 5 7 8 6 6
6 5 4 7 7 2 2 3 2 3 1 2 2 2 3 2 2 1 0 2 0 1 2 2 2 1 0 1 1 1 1 2 2 2 2 3 3 4 4 2 3 4 5 5 5 4 4 6 5 5 5 4 5 5
10 11 8 5 8 3 3 0 1 2 1 2 2 2 2 2 1 1 1 2 1 1 1 0 2 2 2 1 1 2 2 2 3 2 2 2 2 2 3 3 3 5 4 5 5 4 3 3 3 4 4 2 2 3
3 3 8 5 4 3 2 2 0 1 2 2 2 3 2 1 1 0 1 1 2 1 2 3 2 2 4 3 2 2 2 2 1 3 3 2 3 1 3 4 4 2 2 3 3 5 4 5 6 4 2 3 4 5
2 5 2 3 1 2 2 2 2 1 3 2 1 3 2 2 2 1 1 0 2 3 3 1 1 1 2 1 1 2 2 3 2 2 4 2 2 3 3 3 1 3 3 4 4 5 5 5 2 2 2 6 7 5
5 3 2 1 1 2 3 3 2 3 3 3 1 2 1 1 2 0 2 2 3 2 1 3 3 3 4 3 2 3 4 2 2 3 5 4 3 4 5 5 4 3 5 5 3 5 5 4 5 4 4 7 8 7
2 1 2 2 3 2 1 2 1 1 3 2 3 3 3 2 2 2 3 3 0 4 6 7 3 2 3 5 7 7 7 6 6 6 7 6 6 6 7 6 6 6 6 7 6 7 8 9 7 4 4 7 7 7
3 5 3 3 1 4 4 4 2 3 3 4 3 3 2 2 2 2 3 1 3 5 6 7 8 7 6 4 5 6 9 8 6 6 5 5 5 6 6 4 4 5 8 8 9 9 8 8 8 9 9 8 9 4
6 4 4 5 3 4 5 5 5 5 4 2 3 3 2 2 2 4 2 2 2 4 4 5 4 3 7 7 5 6 6 6 5 3 3 4 5 5 6 7 6 6 9 8 9 10 11 10 9 11 10 9 8 7
4 4 2 1 2 1 1 1 2 3 3 4 4 4 3 3 5 3 3 4 3 3 4 4 5 6 5 5 4 4 5 4 4 5 5 2 7 7 7 7 8 7 10 10 10 11 12 12 11 11 11 6 7 8
2 2 3 2 0 1 2 2 2 2 2 2 5 3 6 5 2 3 4 3 4 4 4 6 5 3 3 3 3 4 4 4 5 6 5 4 6 5 8 5 4 12 9 9 9 10 11 12 12 11 11 9 5 6
2 1 2 3 3 1 1 2 2 1 3 3 4 1 3 4 3 3 3 3 3 4 4 3 3 3 4 4 4 4 3 3 7 8 6 4 7 6 7 7 8 8 9 10 13 13 15 14 12 12 8 5 7 7
1 2 2 1 1 1 2 4 2 3 3 2 4 4 4 3 3 3 3 4 3 2 2 3 2 4 2 3 3 5 3 3 3 3 2 3 7 6 7 9 9 9 9 10 11 13 15 10 11 6 5 5 5 6
2 2 1 1 2 2 2 2 1 1 2 2 3 5 4 4 2 3 4 3 3 4 5 4 4 3 3 4 3 2 4 3 4 3 1 3 3 3 4 7 7 8 7 9 11 10 12 8 6 6 6 8 9 7
2 3 3 1 3 2 1 0 0 1 2 2 2 3 4 3 3 2 3 3 4 4 3 3 3 3 3 3 3 2 5 3 3 3 5 2 2 3 4 6 7 7 5 8 10 10 8 7 6 7 6 8 8 8
0 0 0 1 2 1 2 3 2 1 2 2 3 3 3 3 3 2 1 2 4 3 2 1 2 3 2 2 2 4 4 3 7 9 9 6 4 7 4 5 6 5 5 8 9 7 8 7 6 7 7 7 8 7
Wind_Direction
138 138 137 137 139 142 139 130 122 107 89 68 50 36 22 16 10 27 224 24 97 98 338 15 359 77 92 95 130 203 56 334 49 84 130 217 153 237 125 175 173 164 151 195 192 191 272 221 121 151 202 148 152 118
131 128 133 136 137 139 135 131 125 110 87 65 48 35 22 13 6 360 64 315 40 86 194 38 106 49 47 155 134 144 173 157 168 101 168 132 117 44 126 230 175 181 184 180 177 211 226 208 188 176 143 133 152 138
92 112 117 121 129 130 128 123 119 109 89 69 51 34 21 13 9 22 70 355 44 76 354 39 24 359 23 20 140 121 311 168 131 136 131 150 193 135 168 239 236 273 174 191 109 241 230 165 95 110 113 119 117 109
71 73 93 105 117 125 115 114 120 118 98 67 48 35 20 11 4 10 67 324 80 85 107 288 308 47 304 348 48 88 135 63 100 80 115 148 176 177 208 221 162 208 350 209 253 276 91 45 102 115 111 118 147 160
76 70 66 74 92 110 119 117 109 110 101 81 57 34 18 2 353 344 59 34 59 121 165 261 348 23 359 346 87 89 107 109 103 82 114 210 226 78 294 74 242 205 199 166 234 220 154 139 137 140 152 165 186 157
66 76 74 68 70 82 108 132 127 110 121 97 65 41 16 353 346 34 56 2 8 9 90 68 263 326 46 334 151 132 135 108 113 135 201 254 242 121 155 221 243 211 240 234 192 133 115 143 128 135 153 113 94 92
65 66 69 68 65 63 72 112 133 122 130 114 77 45 13 351 26 80 162 248 337 28 85 38 329 334 333 323 31 18 25 44 120 161 165 177 278 121 157 214 228 241 245 141 135 121 131 151 156 157 113 123 116 91
62 59 56 59 59 62 62 71 134 142 135 131 98 73 14 27 99 51 3 297 341 82 74 122 234 0 325 355 50 354 357 357 5 131 49 184 338 67 246 226 219 229 238 137 138 99 119 141 126 117 114 96 80 69
61 55 47 48 57 64 55 50 88 141 134 118 99 53 18 28 40 331 325 321 321 118 136 108 154 214 48 45 56 13 47 36 321 123 212 89 193 221 227 219 227 223 198 154 144 147 142 135 108 96 93 74 78 69
59 50 44 44 57 66 57 69 97 129 129 128 63 68 17 301 318 322 3 37 9 322 70 158 151 185 105 99 11 87 12 216 218 239 82 205 253 291 225 234 296 157 136 145 134 124 122 101 96 86 83 83 90 103
49 48 44 48 42 39 68 84 92 104 99 60 84 105 263 309 12 24 167 107 221 305 220 197 184 143 224 125 163 171 181 181 235 239 177 241 257 242 234 160 104 85 87 76 91 92 89 97 92 88 77 93 182 246
40 37 47 57 52 55 64 46 42 63 44 87 104 85 46 30 39 132 184 342 164 229 3 132 39 93 15 119 108 204 162 135 238 135 169 257 273 312 109 102 79 92 89 83 86 92 80 76 78 79 47 298 278 260
38 37 36 68 63 52 55 65 81 115 114 49 49 62 34 12 139 195 191 225 33 1 347 355 45 109 47 51 87 153 181 211 96 175 223 223 37 84 85 79 72 73 77 76 71 68 68 71 79 162 252 265 256 274
31 43 44 60 74 56 38 34 33 108 66 68 87 80 29 111 56 32 327 49 287 305 31 35 65 106 81 97 134 177 191 112 206 203 227 33 56 41 75 98 91 78 80 86 79 82 103 207 239 247 227 240 237 259
28 50 62 43 62 62 44 26 14 12 89 75 78 90 88 145 85 333 275 9 331 329 60 57 54 54 52 97 354 101 133 229 268 47 52 337 63 85 78 90 109 121 116 107 124 159 258 263 254 271 266 255 249 254
353 320 62 73 51 36 18 17 28 34 36 82 64 105 98 140 99 62 33 59 161 267 280 90 93 88 44 41 223 322 159 49 63 88 209 177 150 123 116 125 139 131 148 174 244 246 247 248 251 267 273 274 263 248
322 64 121 97 76 42 21 53 24 50 80 72 88 40 91 61 112 65 144 279 300 45 67 52 59 86 323 39 47 13 66 149 203 234 174 149 134 111 76 51 53 201 232 249 258 271 270 265 275 292 292 283 264 256
39 80 156 132 2 357 27 15 68 65 67 98 118 138 70 34 91 108 65 345 3 62 16 166 132 92 43 93 209 213 190 228 105 139 134 122 107 91 87 258 289 301 304 305 288 288 283 290 285 268 263 267 276 273
29 32 66 46 10 67 56 18 41 104 54 89 59 43 73 88 78 31 347 315 312 221 84 29 75 176 212 177 171 279 122 130 155 168 178 204 227 240 246 268 281 283 286 282 290 275 261 254 243 251 259 266 263 269
73 49 50 21 351 72 48 34 21 79 141 170 89 72 70 54 58 308 327 352 20 39 40 119 207 210 143 242 195 163 184 136 104 52 315 318 341 7 258 262 257 276 272 274 271 257 284 296 279 265 264 272 336 304
56 44 33 32 5 333 166 195 311 169 135 95 111 111 98 211 168 137 82 321 55 235 259 225 203 216 146 147 125 107 69 79 101 151 201 318 300 323 294 294 288 288 264 265 259 277 260 252 269 270 260 262 243 231
72 53 71 37 53 331 277 321 155 218 65 124 111 122 127 154 137 97 355 14 234 238 208 194 250 95 98 61 105 141 148 90 32 326 303 288 312 317 309 266 334 286 283 263 254 265 268 259 265 294 293 291 285 260
87 47 50 54 210 230 231 350 146 145 142 178 59 99 128 122 95 14 218 235 237 249 74 61 70 82 103 115 108 49 45 71 1 11 19 2 343 339 342 338 337 317 316 317 312 311 309 290 278 264 267 291 287 277
64 78 186 218 229 171 232 185 237 101 113 168 166 172 138 128 137 188 237 219 296 18 30 2 12 43 35 52 64 47 23 22 31 25 19 12 8 359 356 346 348 343 352 342 340 336 323 310 287 274 280 294 288 282
192 230 186 183 244 202 162 169 186 147 150 196 134 135 174 108 159 201 217 104 46 38 22 12 18 35 72 70 69 60 45 33 20 357 346 27 345 331 327 312 318 50 7 351 340 331 320 319 316 307 299 283 268 256
228 191 179 191 190 221 180 163 186 184 124 138 116 104 158 156 131 232 97 81 52 48 24 20 9 21 49 44 36 27 21 24 20 346 318 337 330 10 20 11 359 353 359 340 340 334 329 323 319 323 327 327 311 288
209 205 176 199 295 31 78 55 20 98 135 149 143 158 139 168 221 104 113 21 61 28 46 47 36 30 21 29 21 53 41 14 355 322 304 53 69 48 31 7 354 353 337 336 339 330 325 322 326 322 309 320 329 320
39 197 178 188 206 242 140 109 179 169 185 142 103 174 176 182 108 54 54 40 28 12 74 65 43 16 37 353 51 60 32 2 345 341 349 70 70 53 18 351 353 349 329 327 327 323 323 322 310 318 314 307 338 36
15 24 81 29 342 342 238 175 212 27 344 117 149 123 88 56 10 42 52 36 28 49 50 55 15 19 20 21 39 58 53 40 37 30 21 318 341 342 354 346 343 339 329 324 324 323 319 316 319 307 310 34 77 56
21 333 61 48 85 71 48 344 43 1 2 65 113 105 98 88 39 1 36 41 42 29 26 60 71 60 31 43 5 6 50 63 81 98 6 325 326 328 340 338 335 331 322 328 325 319 318 321 323 350 31 40 54 65
288 282 70 51 71 55 33 343 283 354 20 58 52 74 102 119 89 20 23 352 76 46 43 28 28 37 40 6 350 17 330 331 29 57 5 273 298 319 319 330 322 316 322 327 320 316 311 334 343 16 37 45 48 61
356 19 343 41 96 152 60 332 270 228 181 182 114 108 140 120 85 34 327 9 48 57 36 48 40 338 322 295 11 347 18 10 4 325 308 321 330 321 303 309 314 313 310 322 318 316 320 8 12 23 44 48 45 44
170 41 26 43 332 1 17 33 314 337 41 63 59 80 66 75 119 167 274 83 128 133 98 34 318 307 20 21 22 36 5 325 330 335 349 13 354 319 310 305 309 326 340 323 319 331 7 23 38 32 34 47 50 37